| time (UTC) | temp F | wind direction | speed MPH | gust MPH | rain 1hr in | rain 24hr in | rain mn in | humidity % | barometer mb |
| 20260509223026 | 65 | 354 | 0.0 | 2.0 | 0.00 | 0.00 | 0.00 | 65 | 1007.5 |
| 20260509221525 | 65 | 13 | 1.0 | 3.0 | 0.00 | 0.00 | 0.00 | 62 | 1007.5 |
| 20260509220026 | 66 | 57 | 0.0 | 3.0 | 0.00 | 0.00 | 0.00 | 61 | 1007.5 |
| 20260509214522 | 66 | 75 | 1.0 | 5.0 | 0.00 | 0.00 | 0.00 | 62 | 1007.5 |
| 20260509213018 | 65 | 53 | 1.0 | 5.0 | 0.00 | 0.00 | 0.00 | 64 | 1007.4 |
| 20260509211534 | 65 | 38 | 3.0 | 9.0 | 0.00 | 0.00 | 0.00 | 62 | 1007.4 |
| 20260509210016 | 65 | 68 | 6.0 | 10.0 | 0.00 | 0.00 | 0.00 | 60 | 1007.5 |
| 20260509204514 | 65 | 26 | 4.0 | 13.0 | 0.00 | 0.00 | 0.00 | 61 | 1007.4 |
| 20260509203032 | 64 | 44 | 4.0 | 11.0 | 0.00 | 0.00 | 0.00 | 61 | 1007.3 |
| 20260509201517 | 65 | 12 | 8.0 | 13.0 | 0.00 | 0.00 | 0.00 | 57 | 1007.3 |
| 20260509200012 | 66 | 22 | 5.0 | 10.0 | 0.00 | 0.00 | 0.00 | 54 | 1007.3 |
| 20260509194512 | 67 | 49 | 4.0 | 6.0 | 0.00 | 0.00 | 0.00 | 54 | 1007.3 |
| 20260509193012 | 67 | 59 | 1.0 | 3.0 | 0.00 | 0.00 | 0.00 | 51 | 1007.2 |
| 20260509191513 | 67 | 133 | 0.0 | 3.0 | 0.00 | 0.00 | 0.00 | 50 | 1007.3 |
| 20260509190004 | 67 | 44 | 1.0 | 4.0 | 0.00 | 0.00 | 0.00 | 53 | 1007.6 |
| 20260509184600 | 65 | 164 | 1.0 | 8.0 | 0.00 | 0.00 | 0.00 | 52 | 1007.7 |
| 20260509183057 | 64 | 117 | 0.0 | 4.0 | 0.00 | 0.00 | 0.00 | 56 | 1007.9 |
| 20260509181607 | 64 | 106 | 3.0 | 6.0 | 0.00 | 0.00 | 0.00 | 56 | 1007.9 |
| 20260509180051 | 63 | 110 | 0.0 | 1.0 | 0.00 | 0.00 | 0.00 | 57 | 1008.3 |
| 20260509174552 | 63 | 152 | 0.0 | 8.0 | 0.00 | 0.00 | 0.00 | 56 | 1008.3 |
| 20260509173047 | 63 | 95 | 1.0 | 4.0 | 0.00 | 0.00 | 0.00 | 59 | 1008.4 |
| 20260509171545 | 62 | 155 | 0.0 | 3.0 | 0.00 | 0.00 | 0.00 | 58 | 1008.7 |
| 20260509170041 | 61 | 192 | 0.0 | 3.0 | 0.00 | 0.00 | 0.00 | 59 | 1008.9 |
| 20260509164538 | 61 | 149 | 0.0 | 1.0 | 0.00 | 0.00 | 0.00 | 60 | 1008.9 |
| 20260509163048 | 60 | 95 | 0.0 | 6.0 | 0.00 | 0.00 | 0.00 | 63 | 1009.1 |
| 20260509161534 | 60 | 52 | 2.0 | 5.0 | 0.00 | 0.00 | 0.00 | 62 | 1009.3 |
| 20260509160033 | 60 | 25 | 1.0 | 4.0 | 0.00 | 0.00 | 0.00 | 64 | 1009.5 |
| 20260509154535 | 60 | 51 | 1.0 | 5.0 | 0.00 | 0.00 | 0.00 | 63 | 1009.6 |
| 20260509153032 | 60 | 320 | 2.0 | 6.0 | 0.00 | 0.00 | 0.00 | 64 | 1009.5 |
| 20260509151530 | 60 | 25 | 1.0 | 5.0 | 0.00 | 0.00 | 0.00 | 64 | 1009.3 |
| 20260509150027 | 60 | 35 | 3.0 | 8.0 | 0.00 | 0.00 | 0.00 | 64 | 1009.5 |
| 20260509144525 | 59 | 40 | 4.0 | 9.0 | 0.00 | 0.00 | 0.00 | 65 | 1009.5 |
| 20260509143028 | 58 | 43 | 3.0 | 10.0 | 0.00 | 0.00 | 0.00 | 66 | 1009.6 |
| 20260509141522 | 58 | 16 | 3.0 | 6.0 | 0.00 | 0.00 | 0.00 | 68 | 1009.6 |
| 20260509140016 | 57 | 32 | 0.0 | 4.0 | 0.00 | 0.00 | 0.00 | 69 | 1009.7 |
| 20260509134512 | 56 | 17 | 2.0 | 4.0 | 0.00 | 0.00 | 0.00 | 73 | 1009.9 |
| 20260509133009 | 55 | 23 | 1.0 | 2.0 | 0.00 | 0.00 | 0.00 | 79 | 1009.8 |
| 20260509131512 | 54 | 32 | 0.0 | 3.0 | 0.00 | 0.00 | 0.00 | 82 | 1009.8 |
| 20260509130013 | 54 | 293 | 2.0 | 4.0 | 0.00 | 0.00 | 0.00 | 84 | 1009.8 |
| 20260509124507 | 54 | 280 | 1.0 | 3.0 | 0.00 | 0.00 | 0.00 | 82 | 1009.6 |
| 20260509123006 | 53 | 8 | 1.0 | 2.0 | 0.00 | 0.00 | 0.00 | 81 | 1009.8 |
| 20260509121509 | 53 | 43 | 0.0 | 1.0 | 0.00 | 0.00 | 0.00 | 78 | 1009.8 |
| 20260509120013 | 52 | 43 | 0.0 | 0.0 | 0.00 | 0.00 | 0.00 | 80 | 1009.9 |
| 20260509114504 | 52 | 43 | 0.0 | 0.0 | 0.00 | 0.00 | 0.00 | 80 | 1009.9 |
| 20260509113002 | 52 | 43 | 0.0 | 4.0 | 0.00 | 0.00 | 0.00 | 76 | 1009.8 |
| 20260509111503 | 52 | 293 | 0.0 | 1.0 | 0.00 | 0.00 | 0.00 | 75 | 1009.7 |
| 20260509104604 | 52 | 272 | 2.0 | 3.0 | 0.00 | 0.00 | 0.00 | 71 | 1009.4 |
| 20260509103059 | 52 | 295 | 0.0 | 3.0 | 0.00 | 0.00 | 0.00 | 69 | 1009.4 |
| 20260509101559 | 53 | 299 | 0.0 | 1.0 | 0.00 | 0.00 | 0.00 | 70 | 1009.4 |
| 20260509100109 | 52 | 299 | 0.0 | 5.0 | 0.00 | 0.00 | 0.00 | 67 | 1009.3 |
| 20260509094557 | 53 | 290 | 1.0 | 2.0 | 0.00 | 0.00 | 0.00 | 70 | 1009.2 |
| 20260509093055 | 53 | 246 | 0.0 | 2.0 | 0.00 | 0.00 | 0.00 | 71 | 1009.4 |
| 20260509091555 | 52 | 246 | 0.0 | 1.0 | 0.00 | 0.00 | 0.00 | 70 | 1009.4 |
| 20260509090052 | 52 | 287 | 0.0 | 2.0 | 0.00 | 0.00 | 0.00 | 71 | 1009.4 |
| 20260509084557 | 52 | 287 | 0.0 | 1.0 | 0.00 | 0.00 | 0.00 | 71 | 1009.6 |
| 20260509083050 | 52 | 287 | 1.0 | 3.0 | 0.00 | 0.00 | 0.00 | 72 | 1009.7 |
| 20260509081550 | 52 | 197 | 0.0 | 3.0 | 0.00 | 0.00 | 0.00 | 73 | 1009.6 |
| 20260509080113 | 52 | 341 | 0.0 | 1.0 | 0.00 | 0.00 | 0.00 | 75 | 1009.7 |
| 20260509074549 | 52 | 301 | 0.0 | 2.0 | 0.00 | 0.00 | 0.00 | 71 | 1009.7 |
| 20260509073140 | 52 | 226 | 0.0 | 1.0 | 0.00 | 0.00 | 0.00 | 73 | 1009.7 |
| 20260509071549 | 52 | 226 | 0.0 | 1.0 | 0.00 | 0.00 | 0.00 | 71 | 1009.9 |
| 20260509070045 | 52 | 226 | 0.0 | 1.0 | 0.00 | 0.00 | 0.00 | 72 | 1009.7 |
| 20260509064548 | 52 | 226 | 0.0 | 2.0 | 0.00 | 0.00 | 0.00 | 72 | 1009.9 |
| 20260509063043 | 52 | 228 | 0.0 | 2.0 | 0.00 | 0.00 | 0.00 | 73 | 1010.0 |
| 20260509061550 | 52 | 265 | 0.0 | 2.0 | 0.00 | 0.00 | 0.00 | 71 | 1010.1 |
| 20260509060040 | 52 | 253 | 0.0 | 3.0 | 0.00 | 0.00 | 0.00 | 70 | 1010.2 |
| 20260509054538 | 53 | 216 | 1.0 | 3.0 | 0.00 | 0.00 | 0.00 | 71 | 1010.3 |
| 20260509053036 | 53 | 272 | 0.0 | 2.0 | 0.00 | 0.00 | 0.00 | 72 | 1010.4 |
| 20260509051538 | 53 | 287 | 2.0 | 4.0 | 0.00 | 0.00 | 0.00 | 72 | 1010.4 |
| 20260509050038 | 53 | 258 | 1.0 | 3.0 | 0.00 | 0.00 | 0.00 | 73 | 1010.5 |
| 20260509044531 | 54 | 340 | 0.0 | 2.0 | 0.00 | 0.00 | 0.00 | 70 | 1010.4 |
| 20260509043041 | 54 | 272 | 1.0 | 3.0 | 0.00 | 0.00 | 0.00 | 68 | 1010.4 |
| 20260509041527 | 55 | 71 | 1.0 | 3.0 | 0.00 | 0.00 | 0.00 | 67 | 1010.4 |
| 20260509040023 | 55 | 241 | 0.0 | 1.0 | 0.00 | 0.00 | 0.00 | 66 | 1010.4 |
| 20260509034524 | 55 | 240 | 0.0 | 2.0 | 0.00 | 0.00 | 0.00 | 64 | 1010.4 |
| 20260509033024 | 55 | 244 | 1.0 | 2.0 | 0.00 | 0.00 | 0.00 | 65 | 1010.5 |
| 20260509031522 | 55 | 234 | 1.0 | 3.0 | 0.00 | 0.00 | 0.00 | 64 | 1010.4 |
| 20260509030030 | 55 | 191 | 1.0 | 3.0 | 0.00 | 0.00 | 0.00 | 65 | 1010.6 |
| 20260509024522 | 55 | 245 | 0.0 | 0.0 | 0.00 | 0.00 | 0.00 | 66 | 1010.5 |
| 20260509023025 | 56 | 245 | 0.0 | 3.0 | 0.00 | 0.00 | 0.00 | 63 | 1010.5 |
| 20260509021523 | 56 | 259 | 0.0 | 2.0 | 0.00 | 0.00 | 0.00 | 64 | 1010.5 |
| 20260509020019 | 56 | 259 | 1.0 | 3.0 | 0.00 | 0.00 | 0.00 | 60 | 1010.5 |
| 20260509014519 | 56 | 272 | 1.0 | 4.0 | 0.00 | 0.00 | 0.00 | 60 | 1010.4 |
| 20260509013040 | 56 | 236 | 1.0 | 3.0 | 0.00 | 0.00 | 0.00 | 61 | 1010.2 |
| 20260509011519 | 56 | 209 | 1.0 | 4.0 | 0.00 | 0.00 | 0.00 | 57 | 1010.2 |
| 20260509010002 | 57 | 141 | 0.0 | 2.0 | 0.00 | 0.00 | 0.00 | 59 | 1010.0 |
| 20260509004507 | 58 | 280 | 0.0 | 1.0 | 0.00 | 0.00 | 0.00 | 57 | 1010.1 |
| 20260509003001 | 59 | 286 | 1.0 | 2.0 | 0.00 | 0.00 | 0.00 | 54 | 1010.1 |
| 20260509001501 | 60 | 286 | 0.0 | 4.0 | 0.00 | 0.00 | 0.00 | 51 | 1010.1 |
| 20260509000100 | 62 | 272 | 2.0 | 8.0 | 0.00 | 0.00 | 0.00 | 47 | 1009.9 |
| 20260508234559 | 65 | 273 | 1.0 | 7.0 | 0.00 | 0.00 | 0.00 | 41 | 1009.8 |
| 20260508233135 | 66 | 247 | 2.0 | 7.0 | 0.00 | 0.00 | 0.00 | 38 | 1009.7 |
| 20260508231606 | 67 | 241 | 1.0 | 7.0 | 0.00 | 0.00 | 0.00 | 36 | 1009.6 |
| 20260508224557 | 68 | 250 | 2.0 | 9.0 | 0.00 | 0.00 | 0.00 | 35 | 1009.7 |